SL-14 R/B (11672 NORAD) Tracking and Keplerian Element Data

This shows tracking and keplerian element data for the satellite.

Feedback or suggestion? Click here.




ElementValue
Catalog11672
NameSL-14 R/B
Epoch Orbit46462
Epoch Day354.06012527
Epoch Year2025
RAAN22.7564
Inclination82.5142
Eccentricity0.0017289
Argument of Perigee71.2609
Mean Anonmoly289.0485
Mean Motion14.90799473
Decay Rate4.28E-06
L11 11672U 80005B 25354.06012527 .00000428 00000+0 40816-4 0 9998
L22 11672 82.5142 22.7564 0017289 71.2609 289.0485 14.90799473464620



Live tracking and technical data element details for SL-14 R/B (NORAD 11672). SL-14 R/B can be tracked NOW for your location showing map with azimuth and elevation plus other details from your city location.







IsCatalogInMostPopularTable: catalog: 11672, numindb: 516
Update: records affected: 1



GetName: 11672 SL-14 R/B

Hit Count: updated at: Sat, 07 Mar 2026 07:11:11 GMT